Weather History for Harvey, ND

Change the Weather History Date:

Saturday, September 1, 2012

  Actual Average (KRUG) Record (KRUG)
Temperature  
Mean Temperature 76 °F -  
Max Temperature 93 °F 75 °F 97 °F (1983)
Min Temperature 59 °F 49 °F 35 °F (1981)
Cooling Degree Days 11    
Growing Degree Days 26 (Base 50)    
Moisture  
Dew Point 54 °F    
Average Humidity 51    
Maximum Humidity 77    
Minimum Humidity 28    
Precipitation  
Precipitation 0.00 in - - ()
Sea Level Pressure  
Sea Level Pressure 29.87 in    
Wind  
Wind Speed 13 mph (SE)    
Max Wind Speed 24 mph    
Max Gust Speed 39 mph    
Visibility 10 miles    
Events Rain    
Averages and records for this station are not official NWS values.
T = Trace of Precipitation, MM = Missing Value Source: NWS Daily Summary

Daily Weather History Graph

Daily Weather History Graph

Search for Another Location

Airport:

Trip Planner

Search our weather history database for the weather conditions in past years. The results will help you decide how hot, cold, wet, or windy it might be!

Date:

Astronomy

Sep. 01, 2012 Rise Set
Actual Time 6:58 AM CDT 8:19 PM CDT
Civil Twilight 6:26 AM CDT 8:51 PM CDT
Nautical Twilight 5:47 AM CDT 9:29 PM CDT
Astronomical Twilight 5:06 AM CDT 10:11 PM CDT
Moon 8:24 PM CDT (9/1) 8:17 AM CDT (9/1)
Length of Visible Light 14h 24m
Length of Day
13h 20m
Full, 99% of the Moon is Illuminated
Sep 1
Full
Sep 8
Last Quarter
Sep 15
New
Sep 22
First Quarter
Sep 29
Full

Hourly Weather History & Observations

Time (CDT) Temp. Heat Index Dew Point Humidity Pressure Visibility Wind Dir Wind Speed Gust Speed Precip Events Conditions
12:15 AM 62.6 °F - 48.2 °F 59% 30.06 in 10.0 mi SE 8.1 mph - N/A   Clear
12:35 AM 62.6 °F - 48.2 °F 59% 30.06 in 10.0 mi ESE 8.1 mph - N/A   Clear
12:55 AM 60.8 °F - 48.2 °F 63% 30.06 in 10.0 mi ESE 6.9 mph - N/A   Clear
1:15 AM 60.8 °F - 48.2 °F 63% 30.06 in 10.0 mi ESE 8.1 mph - N/A   Clear
1:35 AM 59.0 °F - 48.2 °F 67% 30.06 in 10.0 mi ESE 9.2 mph - N/A   Clear
1:55 AM 60.8 °F - 48.2 °F 63% 30.06 in 10.0 mi ESE 9.2 mph - N/A   Clear
2:15 AM 60.8 °F - 48.2 °F 63% 30.06 in 10.0 mi ESE 9.2 mph - N/A   Clear
2:35 AM 59.0 °F - 51.8 °F 77% 30.07 in 10.0 mi ESE 5.8 mph - N/A Rain Light Rain
2:55 AM 59.0 °F - 50.0 °F 72% 30.07 in 10.0 mi ESE 6.9 mph - N/A   Partly Cloudy
3:15 AM 60.8 °F - 50.0 °F 68% 30.08 in 10.0 mi Calm Calm - N/A   Mostly Cloudy
3:35 AM 60.8 °F - 50.0 °F 68% 30.09 in 10.0 mi ESE 6.9 mph - N/A   Scattered Clouds
3:55 AM 60.8 °F - 50.0 °F 68% 30.07 in 10.0 mi ESE 10.4 mph - N/A   Partly Cloudy
4:15 AM 62.6 °F - 50.0 °F 63% 30.05 in 10.0 mi ESE 11.5 mph - N/A   Clear
4:35 AM 62.6 °F - 48.2 °F 59% 30.03 in 10.0 mi ESE 13.8 mph 21.9 mph N/A   Clear
4:55 AM 64.4 °F - 48.2 °F 56% 30.04 in 10.0 mi East 11.5 mph - N/A   Clear
5:15 AM 64.4 °F - 48.2 °F 56% 30.03 in 10.0 mi ESE 15.0 mph 19.6 mph N/A   Clear
5:35 AM 62.6 °F - 48.2 °F 59% 30.02 in 10.0 mi ESE 11.5 mph 19.6 mph N/A   Clear
5:55 AM 62.6 °F - 50.0 °F 63% 30.01 in 10.0 mi ESE 11.5 mph 19.6 mph N/A   Clear
6:15 AM 62.6 °F - 50.0 °F 63% 30.00 in 10.0 mi ESE 12.7 mph 19.6 mph N/A   Clear
6:35 AM 62.6 °F - 48.2 °F 59% 29.99 in 10.0 mi ESE 15.0 mph 20.7 mph N/A   Clear
6:55 AM 62.6 °F - 48.2 °F 59% 29.99 in 10.0 mi ESE 13.8 mph 21.9 mph N/A   Clear
7:15 AM 64.4 °F - 48.2 °F 56% 29.97 in 10.0 mi SE 18.4 mph 25.3 mph N/A   Clear
7:35 AM 64.4 °F - 48.2 °F 56% 29.97 in 10.0 mi SE 18.4 mph 28.8 mph N/A   Clear
7:55 AM 66.2 °F - 46.4 °F 49% 29.96 in 10.0 mi SE 19.6 mph 29.9 mph N/A   Clear
8:15 AM 66.2 °F - 46.4 °F 49% 29.96 in 10.0 mi SE 19.6 mph 31.1 mph N/A   Clear
8:35 AM 66.2 °F - 48.2 °F 52% 29.96 in 10.0 mi SE 16.1 mph 28.8 mph N/A   Clear
8:55 AM 66.2 °F - 48.2 °F 52% 29.95 in 10.0 mi SE 18.4 mph 25.3 mph N/A   Clear
9:15 AM 66.2 °F - 48.2 °F 52% 29.94 in 10.0 mi SE 17.3 mph 25.3 mph N/A   Clear
9:35 AM 66.2 °F - 48.2 °F 52% 29.93 in 10.0 mi SE 18.4 mph 23.0 mph N/A   Clear
9:55 AM 66.2 °F - 48.2 °F 52% 29.92 in 10.0 mi SE 17.3 mph 27.6 mph N/A   Clear
10:15 AM 68.0 °F - 48.2 °F 49% 29.92 in 10.0 mi SE 15.0 mph 25.3 mph N/A   Clear
10:35 AM 68.0 °F - 50.0 °F 52% 29.92 in 10.0 mi SE 15.0 mph 24.2 mph N/A   Clear
10:55 AM 69.8 °F - 50.0 °F 49% 29.91 in 10.0 mi SE 13.8 mph 23.0 mph N/A   Clear
11:15 AM 71.6 °F - 51.8 °F 50% 29.90 in 10.0 mi SSE 18.4 mph 23.0 mph N/A   Clear
11:35 AM 71.6 °F - 53.6 °F 53% 29.89 in 10.0 mi SE 13.8 mph 25.3 mph N/A   Clear
11:55 AM 73.4 °F - 55.4 °F 53% 29.88 in 10.0 mi SE 13.8 mph 20.7 mph N/A   Clear
12:15 PM 73.4 °F - 55.4 °F 53% 29.87 in 10.0 mi SE 15.0 mph 20.7 mph N/A   Clear
12:35 PM 75.2 °F - 57.2 °F 53% 29.86 in 10.0 mi SE 13.8 mph 21.9 mph N/A   Clear
12:55 PM 78.8 °F - 57.2 °F 47% 29.85 in 10.0 mi SSE 15.0 mph 27.6 mph N/A   Clear
1:15 PM 80.6 °F 81.1 °F 59.0 °F 48% 29.84 in 10.0 mi SSE 16.1 mph 28.8 mph N/A   Clear
1:35 PM 80.6 °F 81.1 °F 59.0 °F 48% 29.83 in 10.0 mi SSE 16.1 mph 27.6 mph N/A   Clear
1:55 PM 82.4 °F 82.5 °F 59.0 °F 45% 29.82 in 10.0 mi SSE 17.3 mph 28.8 mph N/A   Clear
2:15 PM 84.2 °F 83.8 °F 59.0 °F 42% 29.81 in 10.0 mi SSE 23.0 mph 35.7 mph N/A   Clear
2:35 PM 89.6 °F 88.9 °F 59.0 °F 36% 29.80 in 10.0 mi SSE 19.6 mph 32.2 mph N/A   Clear
2:55 PM 87.8 °F 86.5 °F 57.2 °F 35% 29.79 in 10.0 mi SSE 23.0 mph 32.2 mph N/A   Clear
3:15 PM 86.0 °F 85.4 °F 59.0 °F 40% 29.77 in 10.0 mi SSE 19.6 mph 29.9 mph N/A   Clear
3:35 PM 89.6 °F 88.9 °F 59.0 °F 36% 29.76 in 10.0 mi SSE 24.2 mph 31.1 mph N/A   Clear
3:55 PM 89.6 °F 87.7 °F 55.4 °F 31% 29.76 in 10.0 mi SSE 23.0 mph 34.5 mph N/A   Clear
4:15 PM 89.6 °F 87.3 °F 53.6 °F 29% 29.75 in 10.0 mi SSE 17.3 mph 39.1 mph N/A   Clear
4:35 PM 89.6 °F 87.7 °F 55.4 °F 31% 29.74 in 10.0 mi SSE 24.2 mph 31.1 mph N/A   Clear
4:55 PM 91.4 °F 89.9 °F 57.2 °F 31% 29.73 in 10.0 mi SSE 19.6 mph 31.1 mph N/A   Clear
5:15 PM 91.4 °F 89.4 °F 55.4 °F 29% 29.72 in 10.0 mi South 24.2 mph 35.7 mph N/A   Clear
5:35 PM 93.2 °F 91.3 °F 55.4 °F 28% 29.72 in 10.0 mi South 19.6 mph 33.4 mph N/A   Clear
5:55 PM 91.4 °F 89.9 °F 57.2 °F 31% 29.72 in 10.0 mi SSE 16.1 mph 33.4 mph N/A   Clear
6:15 PM 91.4 °F 89.9 °F 57.2 °F 31% 29.71 in 10.0 mi SSE 24.2 mph 31.1 mph N/A   Clear
6:35 PM 89.6 °F 88.9 °F 59.0 °F 36% 29.71 in 10.0 mi SSE 19.6 mph 26.5 mph N/A   Clear
6:55 PM 89.6 °F 88.9 °F 59.0 °F 36% 29.70 in 10.0 mi SSE 15.0 mph 28.8 mph N/A   Clear
7:15 PM 86.0 °F 86.1 °F 60.8 °F 43% 29.70 in 10.0 mi SSE 17.3 mph 31.1 mph N/A   Clear
7:35 PM 86.0 °F 86.1 °F 60.8 °F 43% 29.69 in 10.0 mi SSE 15.0 mph 29.9 mph N/A   Clear
7:55 PM 84.2 °F 84.4 °F 60.8 °F 45% 29.69 in 10.0 mi SSE 17.3 mph 25.3 mph N/A   Clear
8:15 PM 84.2 °F 84.4 °F 60.8 °F 45% 29.69 in 10.0 mi SSE 17.3 mph 25.3 mph N/A   Clear
8:35 PM 84.2 °F 84.4 °F 60.8 °F 45% 29.68 in 10.0 mi SSE 19.6 mph 29.9 mph N/A   Unknown
8:55 PM 82.4 °F 82.9 °F 60.8 °F 48% 29.68 in 10.0 mi SSE 17.3 mph 29.9 mph N/A   Clear
9:15 PM 82.4 °F 83.4 °F 62.6 °F 51% 29.70 in 10.0 mi SSE 18.4 mph 26.5 mph N/A   Clear
9:35 PM 82.4 °F 83.9 °F 64.4 °F 54% 29.71 in 10.0 mi SSE 19.6 mph 28.8 mph N/A   Clear
9:55 PM 82.4 °F 83.9 °F 64.4 °F 54% 29.70 in 10.0 mi South 23.0 mph 34.5 mph N/A   Clear
10:15 PM 80.6 °F 82.3 °F 64.4 °F 58% 29.69 in 10.0 mi SSE 19.6 mph 29.9 mph N/A   Clear
10:35 PM 80.6 °F 82.3 °F 64.4 °F 58% 29.70 in 10.0 mi SSE 17.3 mph 31.1 mph N/A   Clear
10:55 PM 80.6 °F 81.8 °F 62.6 °F 54% 29.70 in 10.0 mi South 16.1 mph 25.3 mph N/A   Clear
11:15 PM 80.6 °F 81.8 °F 62.6 °F 54% 29.71 in 10.0 mi South 17.3 mph 28.8 mph N/A   Clear
11:35 PM 80.6 °F 81.8 °F 62.6 °F 54% 29.71 in 10.0 mi South 16.1 mph 27.6 mph N/A   Clear
11:55 PM 80.6 °F 81.8 °F 62.6 °F 54% 29.72 in 10.0 mi SSW 16.1 mph 23.0 mph N/A   Clear